Location: Newark
(52.0178°N, 4.7453°W)
Time: 22:06:01
(UTC+00:00)

Envisat - Pass Details

Date: 30 March 2019
Orbit: 764 x 766 km, 98.2° (Epoch: 23 April)

Event Time Altitude Azimuth Distance (km) Brightness Sun altitude
Rises 20:23:31 0° 218° (SW) 3,225 6.4 -14.7°
Reaches altitude 10° 20:26:59 10° 244° (WSW) 2,305 6.0 -15.2°
Maximum altitude 20:29:37 14° 275° (W) 2,038 6.2 -15.5°
Drops below altitude 10° 20:32:15 10° 306° (NW) 2,314 6.8 -15.9°
Sets 20:35:46 0° 332° (NNW) 3,246 7.3 -16.3°
